EHI
0 0 0 1 2 2 1 0 0 0 0 0 0 0 0 0 0 0 0 0 0 0 0 0 0 0 0 1 0 0 0 0 0 0 0 0 0 0 0 0 0 0 0
0 0 0 0 1 1 0 0 0 0 0 0 0 0 0 0 0 0 0 0 0 0 0 0 0 0 0 1 0 0 0 0 0 0 0 0 0 0 0 0 0 0 0
0 0 0 0 0 0 0 0 0 0 0 0 0 0 0 0 0 0 0 0 0 0 0 0 0 0 0 0 0 0 0 0 0 0 0 0 0 0 0 0 0 0 0
0 0 0 0 0 0 0 0 0 0 0 0 0 0 0 0 0 0 0 0 0 0 0 0 0 0 0 0 0 0 0 0 0 0 0 0 0 0 0 0 0 0 0
0 0 0 0 0 0 0 0 0 0 0 0 0 0 0 0 0 0 0 0 0 0 0 0 0 0 0 0 0 0 0 0 0 0 0 0 0 0 0 0 0 0 0
0 0 0 0 0 0 0 0 0 0 0 0 0 0 0 0 0 0 0 0 0 0 0 0 0 0 0 0 0 0 0 0 0 0 0 0 0 0 0 0 0 0 0
0 0 0 0 0 0 0 0 0 0 0 0 0 0 0 0 0 0 0 0 0 0 0 0 0 0 0 0 0 0 0 0 0 0 0 0 0 0 0 0 0 0 0
0 0 0 0 0 0 0 0 0 0 0 0 0 0 0 0 0 0 0 0 0 0 0 0 0 0 0 0 0 0 0 0 0 0 0 0 0 0 0 0 0 0 0
0 0 0 0 0 0 0 0 0 0 0 0 0 0 0 0 0 0 0 0 0 0 0 0 0 0 0 0 0 0 0 0 0 0 0 0 0 0 0 0 0 0 0
0 0 0 0 0 0 0 0 0 0 0 0 0 0 0 0 0 0 0 0 0 0 0 0 0 0 0 0 0 0 0 0 0 0 0 0 0 0 0 0 0 0 0
0 0 0 0 0 0 0 0 0 0 0 0 0 0 0 0 0 0 0 0 0 0 0 0 0 0 0 0 0 0 0 0 0 0 0 0 0 0 0 0 0 0 0
0 0 0 0 0 0 0 0 0 0 0 0 0 0 0 0 0 0 0 0 0 0 0 0 0 0 0 0 0 0 0 0 0 0 0 0 0 0 0 0 0 0 0
0 0 0 0 0 0 0 0 0 0 0 0 0 0 0 0 0 0 0 0 0 0 0 0 0 0 0 0 0 0 0 0 0 0 0 0 0 0 0 0 0 0 0
0 0 0 0 0 0 0 0 0 0 0 0 0 0 0 0 0 0 0 0 0 0 0 0 0 0 0 0 0 0 0 0 0 0 0 0 0 0 0 0 0 0 0
0 0 0 0 0 0 0 0 0 0 0 0 0 0 0 0 0 0 0 0 0 0 0 0 0 0 0 0 0 0 0 0 0 0 0 0 0 0 0 0 0 0 0
0 0 0 0 0 0 0 0 0 0 0 0 0 0 0 0 0 0 0 0 0 0 0 0 0 0 0 0 0 0 0 0 0 0 0 0 0 0 0 0 0 0 0
0 0 0 0 0 0 0 0 0 0 0 0 0 0 0 0 0 0 0 0 0 0 0 0 0 0 0 0 0 0 0 0 0 0 0 0 0 0 0 0 0 0 0
0 0 0 0 0 0 0 0 0 0 0 0 0 0 0 0 0 0 0 0 0 0 0 0 0 0 0 0 0 0 0 0 0 0 0 0 0 0 0 0 0 0 0
0 0 0 0 0 0 0 0 0 0 0 0 0 0 0 0 0 0 0 0 0 0 0 0 0 0 0 0 0 0 0 0 0 0 0 0 0 0 0 0 0 0 0
0 0 0 0 0 0 0 0 0 0 0 0 0 0 0 0 0 0 0 0 0 0 0 0 0 0 0 0 0 0 0 0 0 0 0 0 0 0 0 0 0 0 0
0 0 0 0 0 0 0 0 0 0 0 0 0 0 0 0 0 0 0 0 0 0 0 0 0 0 0 0 0 0 0 0 0 0 0 0 0 0 0 0 0 0 0
0 0 0 0 0 0 0 0 0 0 0 0 0 0 0 0 0 0 0 0 0 0 0 0 0 0 0 0 0 0 0 0 0 0 0 0 0 0 0 0 0 0 0
0 0 0 0 0 0 0 0 0 0 0 0 0 0 0 0 0 0 0 0 0 0 0 0 0 0 0 0 0 0 0 0 0 0 0 0 0 0 0 0 0 0 0
0 0 0 0 0 0 0 0 0 0 0 0 0 0 0 0 0 0 0 0 0 0 0 0 0 0 0 0 0 0 0 0 0 0 0 0 0 0 0 0 0 0 0
0 0 0 0 0 0 0 0 0 0 0 0 0 0 0 0 0 0 0 0 0 0 0 0 0 0 0 0 0 0 0 0 0 0 0 0 0 0 0 0 0 0 0
0 0 0 0 0 0 0 0 0 0 0 0 0 0 0 0 0 0 0 0 0 0 0 0 0 0 0 0 0 0 0 0 0 0 0 0 0 0 0 0 0 0 0
Wind_Speed
10 10 10 9 9 9 9 9 8 7 7 7 6 5 4 3 1 0 1 3 3 3 3 5 6 6 4 4 4 4 4 3 3 1 2 2 3 3 3 3 3 4 5
10 10 10 10 10 10 10 9 9 8 8 7 7 7 6 5 4 3 2 1 2 3 3 3 3 3 4 4 3 4 4 4 3 3 2 2 2 1 2 2 2 2 2
10 11 11 11 11 11 10 10 10 9 9 8 8 8 7 6 6 5 4 2 1 1 2 3 3 4 3 3 3 3 3 3 3 3 2 2 2 2 2 2 2 2 2
10 10 11 11 10 10 10 10 10 10 9 9 9 8 7 7 6 5 4 4 3 2 1 1 2 2 3 4 4 4 4 3 3 3 3 2 2 1 2 2 2 2 2
9 10 10 10 10 10 10 10 10 10 10 9 9 9 9 7 8 8 5 4 4 4 4 3 4 5 5 2 1 2 3 3 3 3 3 3 3 2 2 1 2 3 3
9 10 9 10 10 10 10 10 10 10 10 10 10 10 10 8 10 11 7 5 5 5 5 4 4 4 5 3 4 4 3 2 4 4 3 3 3 3 2 1 2 3 3
9 9 9 10 10 10 10 10 10 9 10 10 10 9 10 11 12 11 9 5 5 5 4 4 3 3 2 4 6 6 7 7 4 1 3 4 3 3 2 3 2 3 4
8 9 9 9 9 9 10 10 9 9 9 9 9 9 8 11 13 10 7 5 6 6 5 4 3 3 3 3 5 6 7 7 4 3 5 5 4 3 2 3 4 5 5
8 8 8 8 9 9 9 9 8 8 8 8 8 9 9 10 14 12 8 5 5 6 5 6 4 3 4 2 4 7 7 7 9 12 11 9 10 8 4 2 3 3 4
7 7 7 8 8 9 9 8 7 6 7 7 7 8 9 10 13 14 10 4 4 4 5 5 8 7 5 3 3 6 7 6 6 7 7 7 7 7 5 3 2 2 3
5 6 6 7 7 8 7 7 7 7 7 7 7 7 8 9 11 13 13 5 5 4 4 4 6 7 6 5 2 4 5 5 5 6 6 6 6 6 6 7 6 4 4
4 4 5 6 6 6 7 7 7 7 7 7 7 7 7 7 9 11 12 10 7 5 5 4 6 8 8 7 5 8 5 3 4 5 5 5 5 5 6 6 8 8 7
3 4 4 5 5 5 6 6 6 6 6 6 6 6 6 6 7 8 9 9 9 6 6 8 8 7 6 8 9 6 3 3 4 5 5 5 5 5 5 5 7 8 9
3 3 2 3 4 5 4 5 5 6 6 6 6 6 6 6 8 7 5 4 4 5 5 7 8 8 7 7 6 4 4 4 4 5 5 5 4 4 4 3 4 4 6
3 2 1 2 2 3 3 4 4 6 6 6 6 6 6 6 8 10 8 6 5 4 3 4 5 5 5 5 5 5 4 4 4 4 5 5 4 4 4 3 3 3 5
2 2 1 0 0 1 1 2 2 1 3 4 6 7 5 6 7 8 9 9 8 6 3 5 5 5 5 5 5 5 4 4 4 4 4 4 4 4 4 4 3 4 4
3 2 2 2 1 1 1 2 1 4 4 2 4 6 7 7 6 6 6 6 6 4 4 5 5 5 5 4 4 4 4 4 3 4 4 4 4 4 4 4 3 4 4
4 3 3 2 2 2 1 2 2 2 1 2 4 4 4 5 5 5 5 2 4 4 5 4 4 4 4 4 3 4 4 3 3 3 4 3 3 3 3 3 3 3 3
4 3 3 3 3 2 2 2 1 1 1 1 1 4 3 2 3 2 4 2 3 3 3 3 3 3 3 3 3 3 3 3 3 3 3 3 3 3 3 3 4 3 1
4 3 4 4 4 3 3 2 2 1 1 0 0 1 2 2 0 2 2 2 2 2 2 2 2 2 2 2 2 2 2 3 3 2 3 2 2 2 3 3 3 3 2
4 5 7 6 5 4 3 3 3 2 2 1 0 1 1 2 1 0 0 0 0 1 1 1 1 1 1 1 1 1 2 2 2 2 2 2 2 2 2 2 2 2 3
4 4 5 5 5 5 4 4 4 4 4 3 2 4 6 5 2 2 2 2 2 1 1 2 2 2 1 1 1 2 2 2 2 2 2 2 2 2 2 2 3 3 3
5 5 5 5 5 5 6 6 5 5 5 4 4 4 5 5 4 4 3 3 3 3 3 3 3 3 3 3 2 2 3 2 2 1 2 3 3 2 3 3 4 4 4
6 6 6 6 5 6 6 6 6 6 6 5 5 5 5 5 5 5 5 4 5 5 5 5 4 5 6 4 3 3 3 1 2 3 3 3 3 3 3 3 4 4 4
6 6 6 6 6 6 6 6 6 6 6 6 6 6 6 6 6 6 6 6 7 6 7 7 5 6 7 8 6 5 3 2 3 4 4 4 4 4 4 4 4 4 4
7 7 6 6 5 6 6 6 7 7 6 6 6 6 6 6 6 6 7 7 7 7 8 7 9 9 9 8 8 6 7 6 6 6 6 5 5 5 5 5 5 5 5
Wind_Direction
18 20 24 24 27 34 35 33 32 35 39 43 46 51 55 58 72 120 219 201 202 199 203 205 204 196 187 187 193 197 202 205 216 204 191 197 206 218 194 225 227 219 190
21 24 27 29 33 35 33 31 33 36 39 44 49 53 51 49 46 44 38 161 191 190 195 186 179 176 180 180 183 190 195 195 206 208 190 195 203 204 210 208 210 212 203
24 28 30 32 32 32 30 31 33 34 36 38 41 44 45 42 43 41 43 50 65 152 191 186 173 172 177 177 184 187 190 190 200 200 177 156 186 177 178 183 180 174 183
27 29 32 33 34 35 34 35 36 35 36 36 39 41 40 39 34 32 40 47 60 69 84 128 146 159 167 175 183 185 178 177 179 180 168 158 161 162 191 174 156 140 132
31 33 31 33 36 37 38 39 40 38 37 36 39 41 40 38 30 21 28 45 58 64 67 73 70 64 57 62 164 183 176 172 168 173 163 157 154 158 149 159 143 132 98
34 35 32 32 34 35 36 37 38 37 36 37 37 38 38 36 32 26 15 46 58 68 67 67 85 87 86 90 72 61 47 174 171 164 158 144 125 118 120 153 147 157 121
37 35 32 33 33 33 34 36 35 38 38 37 36 34 37 35 29 31 20 40 56 55 60 70 73 76 98 116 118 123 90 59 32 96 121 111 116 115 134 127 111 93 83
38 36 32 30 33 34 35 34 31 34 38 36 33 33 34 33 25 25 12 47 63 60 54 53 64 82 72 100 122 110 96 78 58 78 89 84 77 91 91 91 105 107 100
38 34 32 32 32 31 31 30 29 29 34 36 35 31 30 31 24 18 3 58 63 63 58 51 38 79 72 34 125 115 106 94 73 67 65 76 67 43 12 133 148 152 121
40 37 37 35 31 30 28 25 28 31 31 35 40 35 33 31 27 20 6 49 62 65 62 64 50 45 52 8 130 126 118 114 117 118 110 121 103 82 26 39 45 94 114
48 46 42 40 38 32 28 26 28 33 33 35 41 40 38 33 31 29 18 28 49 61 61 56 55 48 50 39 44 104 111 123 119 110 100 91 82 73 61 53 45 42 71
70 62 52 43 36 36 35 31 32 30 34 34 36 38 33 36 33 32 34 33 22 57 54 53 62 59 61 55 69 86 99 120 115 111 103 93 86 80 72 69 69 68 63
98 78 64 58 47 37 34 33 34 32 30 31 30 29 28 26 36 42 46 44 33 51 63 61 64 61 84 81 76 83 110 110 108 105 97 87 80 83 88 85 82 79 72
127 102 83 62 55 51 36 31 31 27 25 26 25 22 23 30 23 11 20 55 80 82 88 93 89 72 76 84 91 82 76 73 86 95 98 96 94 92 85 88 96 103 93
161 146 123 71 40 35 50 35 24 43 25 7 12 13 15 22 21 8 7 22 28 38 61 88 81 83 81 79 77 73 75 90 93 97 103 108 106 100 87 75 77 97 100
196 177 175 165 21 352 13 105 131 38 51 27 17 4 45 39 22 28 35 36 30 8 55 79 73 70 71 73 79 81 76 75 81 94 100 104 108 107 103 95 95 97 100
224 203 205 232 252 292 335 350 68 156 170 111 53 35 37 36 34 33 33 41 31 12 73 75 73 71 70 71 72 76 78 79 81 90 96 100 102 104 103 102 102 104 106
224 202 223 225 252 275 307 330 350 4 65 125 122 90 65 54 42 21 337 289 76 64 67 72 74 74 75 80 82 85 90 92 92 96 98 100 105 110 111 109 103 104 115
216 212 213 224 235 251 263 276 292 326 8 49 117 138 148 164 144 32 334 39 67 73 75 75 74 79 81 82 83 88 93 94 97 102 102 104 110 117 115 113 105 92 120
214 207 234 232 228 230 237 249 256 268 290 318 344 63 153 215 174 90 67 51 67 85 89 93 84 77 87 92 99 109 114 114 119 116 111 113 109 115 125 131 133 143 134
222 196 203 233 236 236 241 247 250 251 261 270 262 113 303 280 335 42 82 117 93 127 144 141 137 144 130 134 160 160 155 136 133 134 134 134 137 140 143 146 148 146 140
229 226 219 228 230 232 240 243 246 248 249 249 237 175 187 240 246 235 214 201 195 204 206 209 201 182 197 216 224 214 198 180 173 178 167 160 162 166 172 176 178 173 169
235 235 233 232 234 226 236 242 240 242 243 242 238 225 205 223 231 229 222 210 201 201 200 212 217 203 204 214 226 240 230 201 195 213 203 191 197 194 198 194 194 198 191
232 236 240 239 236 239 238 240 238 238 241 241 237 233 229 225 228 225 219 209 203 203 203 209 219 216 210 211 215 221 227 220 221 216 231 228 215 210 207 203 206 203 198
230 234 238 242 241 240 242 242 242 239 237 239 240 237 232 227 225 221 214 207 206 208 207 208 211 216 217 214 215 215 162 160 267 273 225 228 224 222 223 215 212 209 211
227 233 238 241 244 246 247 247 246 245 243 242 240 239 236 231 227 220 211 206 205 207 208 209 213 214 214 219 218 197 173 197 220 249 258 237 224 222 221 221 217 218 217